Theta_e
298 298 298 296 296 297 299 300 300 301 301 302 301 302 310 318 316 310 310 311 310 314 318 315 314 318 317 313 310 311 312 311 310 309 308 309 309 309 310 308 308 309 308 309 313 311 309 314 319 320 321 320 316 318 320 321 323 322 320 320 322 326 323 320 326 328 324 322 319 316 316 318 323 327 325 326 326 325 326 328 330 329 327 327 325 326 332
298 298 297 296 296 297 299 300 301 301 301 301 302 305 313 316 312 311 312 311 311 314 315 314 316 318 317 315 313 310 310 310 309 308 309 309 308 310 312 310 309 310 309 310 314 313 309 312 316 317 318 318 317 320 323 323 325 323 320 319 322 324 322 321 325 326 326 327 326 322 322 324 326 324 322 326 327 324 322 322 322 326 329 329 328 332 334
298 298 297 296 296 297 298 300 301 302 301 301 302 305 311 313 312 313 312 310 312 314 313 313 315 316 315 314 313 312 310 310 309 308 309 308 308 310 311 310 310 311 312 313 315 314 311 311 315 317 317 317 317 319 321 324 327 325 323 323 324 322 321 321 323 323 323 327 326 323 322 322 323 323 322 323 324 325 324 322 321 322 322 324 333 337 330
297 298 297 296 296 297 299 301 302 303 303 304 302 302 308 315 315 313 312 312 313 313 312 314 314 314 314 312 310 310 311 310 308 308 309 307 308 310 308 309 310 310 313 317 318 315 314 313 314 316 317 318 316 317 321 324 325 325 324 324 326 324 320 320 323 322 320 322 320 316 318 321 323 325 324 321 320 323 326 325 325 325 322 324 334 335 328
297 298 297 296 296 297 299 301 302 304 306 306 303 303 308 313 315 315 314 313 314 314 312 313 312 310 311 311 308 307 310 311 308 308 309 308 309 309 307 307 309 309 311 315 315 313 314 315 312 311 313 315 315 317 321 322 322 323 323 322 327 329 322 318 319 319 315 316 316 314 317 322 321 321 322 320 319 323 328 324 320 322 327 329 330 327 327
297 297 297 296 295 296 299 302 302 305 307 305 305 308 309 308 310 312 310 310 314 313 310 313 314 310 309 310 309 308 310 310 309 309 310 310 310 308 309 309 308 307 307 309 310 311 313 312 311 311 310 310 314 318 320 320 320 323 324 323 328 333 325 316 317 320 316 315 317 317 318 318 315 313 316 317 319 324 331 327 319 320 328 328 324 322 326
297 297 297 295 295 296 299 302 302 304 306 304 304 307 307 308 309 308 306 309 314 311 308 313 316 312 310 311 309 309 309 308 308 308 310 314 312 308 309 310 308 307 309 310 308 309 310 308 309 310 307 307 313 317 320 319 315 320 327 324 323 327 323 316 317 322 320 317 318 318 317 317 315 311 311 313 316 320 323 323 319 319 322 321 321 324 327
297 297 297 295 295 296 299 302 302 303 305 304 304 305 306 308 309 310 311 312 312 312 313 316 317 312 310 309 307 308 309 307 307 308 309 311 310 308 308 309 309 309 310 312 308 306 306 305 306 307 304 308 312 311 315 316 311 315 325 323 321 323 320 317 319 322 321 320 320 319 318 318 318 315 310 310 315 319 319 319 318 318 321 322 324 327 325
297 297 296 295 295 296 299 302 302 303 305 304 304 305 306 305 305 309 316 313 307 309 312 312 314 311 309 309 308 308 308 306 306 308 308 308 308 309 308 308 310 309 309 310 308 306 306 304 305 306 304 307 312 310 311 312 308 314 322 321 322 325 321 317 319 322 321 319 319 321 320 319 320 317 312 310 313 316 317 316 316 319 323 324 325 326 322
297 297 296 295 295 296 298 301 302 303 304 303 305 307 306 305 304 307 314 311 305 306 309 309 310 308 306 308 309 308 307 307 307 307 307 308 308 308 308 307 308 308 307 307 306 305 305 303 304 305 303 305 309 309 308 307 305 311 321 322 321 323 323 320 320 322 322 318 318 321 320 320 321 316 311 311 312 313 315 316 315 317 320 322 324 324 318
297 297 296 295 295 296 298 300 302 303 303 303 306 306 304 306 307 310 317 312 303 304 309 310 309 307 305 305 306 307 309 309 308 306 307 308 307 307 308 307 306 308 309 306 303 301 301 301 301 301 302 303 305 305 306 307 306 307 316 323 321 320 323 323 320 322 322 317 318 322 322 322 319 313 310 310 310 312 315 316 314 314 316 319 321 319 313
297 297 296 295 295 296 298 300 301 303 303 304 304 304 304 305 306 313 323 315 303 304 308 306 305 306 304 304 305 306 307 307 305 304 306 309 309 308 309 305 304 308 308 303 302 302 302 304 304 304 304 304 305 308 309 310 310 308 312 320 321 321 324 322 319 321 320 317 319 323 323 319 314 311 309 308 309 310 312 313 312 312 314 317 317 315 310
297 297 296 295 295 296 298 300 302 302 303 304 303 303 304 304 304 311 320 314 304 304 306 303 303 305 304 304 306 306 306 306 304 304 306 308 309 311 309 306 304 306 304 301 303 307 309 310 312 312 311 310 312 315 313 311 311 310 311 317 321 322 323 321 318 318 317 319 321 321 319 314 311 311 309 307 308 309 311 315 313 310 312 314 312 310 307
297 297 296 295 295 296 298 300 302 303 303 304 303 303 304 305 306 309 314 312 305 301 303 304 305 306 304 304 306 308 309 309 307 306 306 305 308 311 310 307 304 302 300 301 306 311 311 313 316 315 314 315 316 316 315 315 313 310 310 313 317 320 322 322 320 316 316 319 319 317 317 315 312 311 309 307 308 308 309 314 313 310 311 311 309 308 307
297 296 296 296 295 296 298 300 302 303 303 303 303 304 304 305 306 305 306 311 309 302 302 303 303 304 304 303 304 307 310 310 307 306 306 304 307 310 307 302 300 299 300 303 309 313 311 311 315 315 313 315 313 311 313 314 313 311 309 310 313 316 319 323 322 316 316 320 319 317 319 317 312 310 307 306 308 307 307 311 313 311 310 309 309 308 307
296 296 296 296 295 296 298 301 302 303 303 303 302 302 302 303 304 299 301 310 312 302 300 300 300 303 304 302 302 303 304 306 306 308 311 309 308 307 302 298 298 301 305 309 312 316 314 311 312 314 313 311 310 310 311 311 312 313 311 310 313 314 316 322 322 316 315 318 318 317 317 315 310 308 306 305 307 306 306 312 316 311 309 309 308 306 306
296 296 296 296 296 296 298 301 302 303 303 302 302 302 300 300 301 297 299 308 310 301 300 301 302 305 305 302 303 302 301 303 303 304 307 307 305 305 303 300 300 302 307 313 316 318 316 312 312 314 311 307 308 311 311 311 313 314 312 313 315 315 316 319 318 314 313 313 313 313 313 312 308 306 305 304 304 306 311 318 317 310 308 308 307 306 306
295 296 296 296 296 296 298 301 302 303 303 302 302 302 300 300 299 297 301 310 310 302 299 299 300 303 302 300 302 301 300 303 302 301 304 305 304 303 301 301 303 303 306 313 317 316 313 309 309 312 311 307 307 309 309 309 311 310 309 312 314 314 314 314 313 312 311 312 312 311 310 309 306 304 302 302 304 310 316 317 312 307 307 307 306 306 306
295 295 296 296 296 296 298 300 301 302 303 302 302 302 301 301 300 298 301 308 309 302 297 296 297 300 298 298 301 301 299 301 302 302 305 306 302 300 300 300 302 303 306 312 314 311 310 307 305 309 311 307 306 308 307 306 307 306 307 310 310 310 312 311 310 310 310 310 311 311 310 307 303 302 302 303 309 314 313 308 304 304 306 306 304 304 304
295 295 295 296 296 296 298 300 301 302 302 302 302 303 302 300 300 299 299 303 306 303 298 296 297 298 297 298 301 301 301 304 304 303 305 305 302 304 307 307 304 304 307 311 310 307 309 308 303 305 308 305 305 307 306 304 304 304 306 308 306 306 309 311 309 307 308 310 311 312 311 307 302 303 305 307 309 310 307 304 303 304 305 304 302 302 303
295 295 296 296 296 296 297 300 301 301 302 302 302 302 302 300 300 300 298 300 305 305 300 297 297 298 298 299 299 300 301 302 301 301 304 304 302 305 308 308 305 303 304 307 306 304 305 305 303 304 305 303 304 306 307 308 307 303 304 308 306 304 307 310 308 306 308 311 310 308 307 304 302 303 305 305 304 304 304 304 303 303 303 303 302 302 302
295 295 296 296 295 296 297 299 301 301 301 302 302 302 303 301 300 301 299 299 303 303 300 298 298 298 299 299 298 299 300 299 299 299 301 302 302 303 304 305 306 303 301 304 305 303 302 304 305 305 304 303 304 305 306 309 310 306 305 308 307 305 305 307 306 304 305 308 307 305 304 302 301 302 302 301 301 301 302 302 302 302 302 301 301 301 300
295 295 296 295 295 296 297 298 301 302 300 301 302 302 303 302 300 301 300 299 300 300 297 298 299 299 300 300 300 299 299 300 300 299 299 302 304 304 303 303 302 301 301 303 303 303 306 306 304 305 303 302 304 306 306 307 308 306 305 306 305 304 304 306 306 304 303 305 304 303 303 302 301 302 301 301 301 300 301 301 302 302 302 301 300 300 300
295 295 296 296 295 296 297 298 300 302 301 300 301 302 303 302 301 300 300 300 304 304 300 300 303 302 299 300 300 299 300 300 300 300 300 300 303 305 304 301 300 302 305 302 298 301 306 304 301 304 303 300 303 307 308 306 304 304 305 306 305 304 305 306 306 304 304 306 304 302 303 302 301 302 301 301 301 300 300 301 301 301 302 302 302 301 301
295 296 296 296 295 295 296 298 300 301 300 299 299 301 303 302 302 303 300 300 305 309 306 303 304 301 298 300 300 299 300 301 299 300 300 298 300 303 301 298 298 300 301 299 299 305 308 303 302 306 304 300 301 303 303 303 303 303 306 305 303 304 306 306 305 304 304 304 303 302 302 301 301 302 302 301 302 301 300 300 300 300 301 301 301 301 301
295 296 296 296 296 295 296 297 300 301 299 298 298 300 302 302 302 303 301 299 302 307 306 304 304 301 299 300 301 299 300 301 299 299 299 298 299 300 298 297 299 298 297 298 304 310 310 305 304 307 304 301 303 303 301 302 303 304 304 302 300 303 306 304 303 304 303 302 302 302 303 301 301 302 302 302 302 301 301 301 300 300 301 300 300 300 300
295 296 297 296 296 295 295 296 299 300 298 296 297 297 299 301 301 302 302 302 303 304 304 303 303 301 299 300 300 299 300 300 299 299 299 297 299 299 297 299 304 305 305 306 307 308 311 308 304 303 301 300 302 302 299 300 303 305 304 300 300 305 306 304 304 306 306 306 305 304 304 304 301 301 302 302 302 301 301 301 301 301 301 301 301 300 298
295 296 297 296 295 295 295 296 298 300 298 296 297 297 296 297 299 300 302 303 304 307 308 306 303 300 299 300 300 299 300 300 299 300 299 297 299 298 295 297 305 310 310 309 306 307 310 306 300 299 300 300 302 302 300 301 305 306 303 300 301 304 305 305 308 308 306 307 307 304 305 305 301 300 302 302 301 302 302 301 301 301 300 299 300 300 299
296 296 297 296 295 296 296 296 297 300 300 299 299 300 298 296 296 299 301 302 302 305 309 309 305 301 301 301 299 299 300 300 299 299 299 298 298 297 294 296 304 306 304 304 305 306 304 301 299 299 297 298 302 304 304 305 306 304 302 300 300 301 301 302 306 306 303 305 307 304 304 303 301 302 303 301 298 300 302 302 300 298 297 297 297 298 299
295 296 296 295 296 297 299 299 298 300 302 301 302 306 306 300 296 297 302 303 301 303 309 311 306 301 299 299 298 299 300 300 299 299 299 297 297 295 294 297 302 304 305 306 305 302 301 301 302 301 298 299 305 306 303 304 304 301 301 302 301 300 301 300 302 304 304 305 304 303 303 304 302 301 301 298 295 296 299 299 298 296 296 296 296 295 295
296 296 296 296 298 299 300 300 299 300 302 303 304 308 310 303 296 296 301 302 301 303 310 311 305 301 301 301 299 298 298 298 298 298 297 297 297 296 295 298 300 301 305 307 304 301 301 300 301 302 301 302 307 306 303 304 305 302 301 302 300 300 302 301 300 301 301 301 301 300 301 302 301 300 300 298 296 295 297 296 295 296 296 296 296 296 295
296 296 296 297 299 299 300 300 300 301 303 302 301 301 301 299 297 298 302 303 301 303 310 310 303 301 304 303 299 298 298 298 297 298 299 299 299 298 297 299 299 298 302 306 305 302 300 298 299 302 300 300 305 308 305 305 306 301 299 300 300 299 299 300 299 299 299 300 301 301 299 299 300 302 302 298 295 295 295 294 294 296 296 295 295 295 295
296 296 297 298 299 299 299 300 300 300 300 299 297 295 295 296 297 299 302 304 300 299 305 309 304 299 301 301 298 297 299 300 301 302 301 298 297 299 301 302 302 301 300 301 302 299 298 300 303 303 299 299 306 310 305 301 301 299 298 300 301 299 299 299 299 299 299 299 300 302 302 300 300 299 298 296 294 294 294 293 293 294 295 295 297 296 294
296 296 298 298 299 299 300 302 302 300 298 298 297 295 295 295 298 301 303 302 299 298 301 305 306 302 300 301 301 299 299 302 303 303 301 297 296 299 302 305 306 303 298 298 301 301 299 301 304 303 301 301 304 305 301 298 298 299 300 299 298 299 300 299 299 300 301 300 299 299 298 298 298 297 296 296 295 294 292 292 293 295 298 300 299 295 292
296 297 298 298 299 300 302 303 303 301 300 300 298 296 295 296 299 302 302 300 301 304 303 303 305 305 303 303 304 301 299 301 302 300 299 299 297 297 302 307 307 301 298 300 303 302 299 299 302 302 301 301 302 303 302 301 299 299 300 299 298 299 300 299 298 299 302 302 301 298 295 295 298 299 299 299 297 293 292 292 292 293 300 304 299 293 291
296 297 297 298 299 301 302 302 301 300 300 300 298 296 297 298 300 301 301 300 302 306 307 305 306 307 304 303 303 300 298 300 302 300 302 303 299 298 305 310 304 299 300 304 305 301 298 299 302 302 301 301 300 299 300 302 302 300 300 301 301 300 300 299 299 300 301 302 304 303 300 299 301 302 300 299 297 293 293 295 295 295 300 305 299 292 290
296 297 298 299 300 301 301 299 298 298 297 297 298 299 298 300 302 301 301 302 300 301 305 308 306 303 302 302 302 301 299 300 301 301 303 302 299 299 305 307 302 302 305 306 302 298 298 301 303 303 301 300 299 297 298 302 304 300 300 302 303 302 301 300 301 302 301 300 300 302 302 302 302 302 301 300 299 296 295 298 298 297 300 303 299 293 291
298 300 300 301 303 305 303 299 297 297 297 298 301 301 299 300 304 304 303 304 302 300 303 306 303 300 301 303 301 299 299 300 301 301 300 299 299 300 302 301 301 303 304 300 296 297 300 302 303 301 299 299 299 297 298 300 301 300 300 302 302 303 303 301 300 302 302 300 299 301 301 300 300 300 300 300 300 298 296 294 294 293 294 295 294 292 292
301 301 301 301 303 305 303 298 296 298 300 299 300 300 299 300 302 302 301 302 302 302 304 305 303 301 304 306 300 297 298 302 305 304 301 298 298 300 300 299 300 303 302 297 296 300 302 301 300 299 299 300 300 298 298 301 302 301 300 298 296 296 296 295 295 298 300 301 300 299 300 299 299 299 301 302 301 297 294 292 293 293 293 292 292 292 292
301 301 301 302 302 301 300 298 298 299 302 301 299 299 300 301 301 301 301 302 301 300 301 302 300 299 302 306 303 299 297 299 302 304 302 299 297 300 300 298 298 302 302 297 297 303 304 300 299 299 299 299 299 298 299 302 303 302 298 294 292 292 293 293 294 294 296 296 296 294 295 295 296 297 300 302 301 298 296 294 294 294 293 292 292 292 293
301 300 301 301 301 299 299 299 298 298 300 301 300 299 300 299 299 300 303 303 300 298 300 302 301 300 301 304 305 301 297 295 297 302 303 299 298 301 302 297 297 301 301 295 297 305 306 301 300 302 304 303 302 300 299 300 302 301 297 293 292 293 293 294 295 295 294 294 294 295 295 295 294 295 296 296 296 296 296 295 295 294 294 293 293 294 294
300 300 300 300 300 299 298 298 297 296 298 300 300 299 299 298 298 300 302 301 299 299 300 302 302 301 299 299 300 300 298 296 298 303 303 298 296 300 302 299 298 300 299 296 299 305 306 301 300 304 306 304 301 300 299 300 302 302 298 294 294 294 293 294 295 295 295 294 295 295 296 295 294 295 295 295 295 295 295 295 295 295 295 295 295 295 295
301 300 300 300 299 297 298 298 296 296 299 301 300 298 299 299 298 299 300 299 299 301 299 298 299 299 298 297 298 300 298 296 298 303 303 298 297 300 302 300 298 297 298 299 301 302 302 302 303 305 305 303 300 301 301 301 302 302 298 295 295 295 294 294 295 295 295 295 295 295 295 295 295 295 295 295 295 295 295 295 296 295 295 295 295 295 295
300 298 299 300 298 296 298 298 296 296 298 300 299 300 300 299 299 301 301 300 300 301 300 301 303 303 300 298 299 299 298 297 299 301 299 298 299 300 300 300 299 296 297 301 302 299 297 299 301 302 303 302 301 302 303 303 304 303 300 296 295 296 296 295 295 295 295 295 295 295 295 295 295 295 296 296 296 296 296 296 296 295 295 296 295 295 295
299 299 300 300 298 296 297 298 298 298 298 299 301 304 304 302 303 305 304 302 301 300 301 304 307 306 300 297 298 299 300 301 301 299 298 299 300 299 297 298 301 300 298 299 301 298 296 298 301 302 302 301 301 303 306 304 300 298 299 299 296 295 295 295 294 294 295 295 295 295 295 295 295 296 296 296 296 296 296 296 296 296 295 295 295 295 295
298 299 301 300 298 297 297 298 299 299 299 301 304 307 306 305 304 303 301 302 303 302 301 303 307 306 301 298 297 299 302 303 301 298 299 301 300 297 295 295 299 301 300 299 301 301 299 301 304 305 304 304 304 305 306 302 294 292 297 300 297 293 294 295 295 294 295 296 296 295 295 296 296 296 296 296 296 296 296 296 296 296 296 295 295 295 295
297 298 299 299 298 297 297 298 300 299 298 301 304 304 302 302 302 300 299 300 302 302 300 301 302 302 300 299 298 299 301 302 299 297 298 300 299 298 298 298 299 300 299 300 301 302 303 306 307 306 304 305 304 303 304 303 298 297 300 301 295 292 294 296 295 295 296 296 295 296 296 296 296 296 296 296 296 296 296 296 296 296 296 296 296 296 295
299 298 298 299 300 298 297 299 300 298 296 299 301 299 298 300 301 300 298 299 300 302 302 302 301 300 300 300 300 300 301 301 299 297 297 298 298 298 299 300 300 299 299 301 303 304 305 307 307 304 303 303 302 301 302 303 302 302 304 301 295 293 294 295 295 296 296 296 295 295 296 296 296 296 296 296 296 296 296 296 296 296 296 296 296 296 296
298 298 298 299 300 299 297 298 300 299 298 299 300 299 299 302 301 299 299 300 301 300 300 302 304 303 300 299 300 301 300 299 299 298 299 300 300 299 299 300 300 299 298 300 304 306 307 307 306 305 304 304 304 304 304 301 297 296 299 298 296 295 296 296 295 296 296 296 296 296 295 295 296 296 295 296 296 296 297 296 296 296 296 296 296 296 296
296 297 299 300 300 298 297 298 300 300 299 300 301 300 300 301 300 297 296 299 303 303 301 302 304 304 300 299 300 301 299 298 299 299 299 299 300 298 298 299 301 301 299 300 304 307 306 305 304 303 302 303 304 305 302 297 293 292 295 296 296 296 297 296 296 296 296 296 296 296 296 296 296 296 295 296 296 296 296 296 296 296 296 296 296 296 296
297 298 299 298 299 299 300 300 301 301 299 300 302 301 300 303 304 299 295 298 306 308 304 302 302 302 301 301 300 298 297 298 300 299 298 298 299 299 299 300 302 303 304 304 305 306 304 303 303 304 304 304 303 299 295 293 293 294 296 296 296 297 297 297 296 296 296 297 297 296 296 297 297 296 296 296 295 295 296 297 297 296 296 296 296 296 296
300 299 298 297 298 299 300 301 301 301 300 301 302 300 300 303 303 298 294 300 309 308 301 299 302 303 301 300 300 298 298 299 300 299 297 297 298 301 303 304 304 305 306 305 304 303 304 304 302 301 301 302 299 295 292 293 295 296 297 297 297 297 297 297 297 297 297 297 297 297 297 297 297 297 297 296 296 296 296 296 296 296 296 296 296 296 296
Wind_Speed
16 17 16 17 18 19 20 19 18 19 18 12 10 8 3 3 1 2 5 10 3 4 2 3 3 1 2 2 2 2 1 1 2 3 3 2 1 2 1 1 1 1 1 1 2 2 1 1 1 0 1 1 1 5 5 1 2 3 2 1 1 1 3 0 3 4 5 7 6 2 3 4 3 3 1 3 3 3 5 5 3 3 3 2 3 1 5
17 17 16 17 18 19 19 18 17 17 14 10 7 4 1 3 1 1 6 6 2 4 2 2 2 2 3 3 2 2 1 0 2 1 2 2 1 1 1 1 1 1 1 1 1 2 1 1 2 0 1 1 3 6 7 2 2 2 1 3 1 0 1 1 1 3 5 5 5 4 4 3 2 3 4 1 3 5 4 2 3 1 3 4 5 3 5
17 17 16 16 19 20 20 19 18 16 14 8 3 1 0 2 1 2 1 2 2 2 3 2 2 2 2 3 4 4 1 2 1 1 2 2 1 1 1 1 1 1 2 2 2 2 1 0 3 2 1 2 3 6 8 5 3 1 1 2 2 2 1 2 2 3 3 2 2 3 3 3 2 2 5 5 1 6 4 2 3 1 3 4 5 4 3
17 17 15 16 19 20 20 20 18 17 15 6 7 3 0 2 2 1 2 3 3 1 1 4 3 1 1 1 3 2 2 4 2 1 0 2 2 1 1 2 3 3 4 4 3 3 2 0 2 3 3 3 2 5 6 5 4 3 4 5 3 3 2 2 3 4 3 4 5 5 3 1 2 4 6 7 5 0 5 4 2 4 3 2 4 5 5
17 17 15 16 19 20 21 21 18 17 12 5 10 2 1 2 1 2 1 2 2 1 2 3 2 1 2 1 2 2 2 4 3 1 1 1 2 1 2 4 3 2 3 2 2 4 4 3 3 3 4 3 3 6 4 5 7 5 4 4 3 4 2 2 3 3 1 3 5 5 2 1 1 4 6 7 8 4 5 4 3 4 5 2 6 4 7
16 16 15 16 19 20 21 20 18 15 7 8 9 1 1 2 1 2 3 1 1 0 1 2 4 2 1 1 1 2 3 3 1 2 3 3 2 2 2 4 3 1 1 1 1 4 4 4 3 3 4 3 5 7 3 4 8 6 3 3 3 5 1 1 3 3 2 2 3 4 3 2 3 4 6 7 8 6 5 3 3 5 5 4 4 4 6
16 15 15 16 18 20 20 20 18 11 5 7 3 1 0 2 1 0 1 1 3 1 0 3 5 3 1 1 1 1 2 3 2 2 2 4 4 2 1 4 4 3 0 3 2 2 2 3 3 2 3 3 2 4 3 3 6 6 4 3 3 4 1 3 3 2 1 4 5 5 6 3 2 5 7 8 8 5 5 3 1 3 3 3 4 7 5
16 15 15 16 18 20 20 19 18 10 2 3 1 0 1 2 2 1 2 3 1 1 2 3 4 3 2 2 1 1 2 2 3 2 1 1 4 3 1 4 5 3 1 4 3 2 4 1 3 2 2 3 1 1 2 3 5 6 3 2 2 3 2 2 1 1 2 6 6 6 5 3 2 6 10 11 9 7 5 4 3 2 3 4 6 8 6
16 15 14 16 17 19 19 18 18 12 1 4 2 1 1 1 1 2 4 3 3 3 2 3 4 2 3 1 1 1 1 1 3 2 1 2 2 1 2 4 4 3 3 2 1 4 5 5 7 6 4 3 3 2 2 1 4 5 3 2 3 3 2 1 2 2 2 4 5 7 7 3 3 8 13 13 9 6 4 3 3 2 3 6 6 5 4
16 14 13 15 16 18 19 18 17 14 4 3 2 1 2 1 1 2 5 3 3 2 2 3 3 1 1 1 2 1 1 3 1 1 3 1 2 4 4 2 1 3 4 3 4 5 5 7 8 7 6 6 5 4 4 3 1 2 2 2 2 2 3 1 1 3 2 3 3 4 6 4 3 5 9 9 6 5 5 3 5 6 2 4 3 3 6
15 14 13 15 16 17 18 18 17 14 9 2 1 1 2 1 2 2 5 4 2 2 2 3 2 1 1 2 2 1 2 4 3 1 2 2 2 2 3 4 1 2 4 4 3 5 7 7 5 4 4 5 5 5 5 4 4 4 3 1 1 2 4 1 1 2 0 3 3 3 2 2 1 1 4 6 5 6 5 3 5 9 5 0 2 6 9
15 14 13 14 15 16 17 18 16 14 10 6 3 3 2 1 2 2 5 4 1 2 3 1 1 0 2 2 1 1 2 3 2 2 3 3 3 1 2 4 2 2 5 4 5 4 3 2 2 2 2 1 2 3 3 4 5 3 5 5 2 3 4 1 0 2 1 2 3 3 1 2 1 1 4 5 4 4 4 1 6 10 8 4 6 9 10
15 14 13 13 14 15 17 17 15 13 11 7 4 3 1 2 3 3 4 5 0 1 2 1 1 1 2 3 1 2 4 4 4 4 3 3 3 3 2 2 4 4 5 5 7 4 3 2 3 2 4 4 3 4 5 7 8 6 0 3 5 5 4 2 1 1 1 1 3 2 2 2 1 1 5 6 4 5 4 2 6 10 8 5 8 9 10
15 14 12 13 14 14 16 17 15 13 10 7 6 5 2 2 3 2 3 5 1 1 1 1 3 3 2 2 2 3 4 4 4 3 2 1 3 4 4 3 4 5 4 3 4 3 3 2 3 3 4 5 4 4 5 4 5 6 6 3 3 6 4 3 2 1 2 2 1 1 1 1 2 2 5 5 3 4 4 2 4 7 6 4 7 10 11
15 14 12 12 13 14 15 16 14 11 9 8 8 8 6 4 3 3 4 5 3 1 2 0 2 2 2 2 2 3 4 5 4 3 2 2 3 5 4 3 6 7 1 2 1 2 2 2 2 2 2 2 1 2 3 3 3 4 4 4 3 4 3 4 2 1 2 3 2 1 1 1 2 3 4 4 3 4 3 2 2 5 6 5 7 10 10
14 14 12 11 12 13 14 15 13 10 9 8 9 11 10 7 5 5 5 5 5 2 1 3 4 2 1 1 2 3 1 2 2 3 5 4 4 5 4 5 6 4 3 3 2 3 3 2 2 2 1 1 1 1 1 2 3 4 4 6 8 7 3 4 4 2 2 3 2 2 1 0 1 5 7 6 4 3 2 1 2 4 6 5 8 10 9
14 14 12 11 11 12 13 14 13 10 9 10 11 12 12 8 5 5 4 4 4 1 3 3 3 3 3 1 3 1 1 1 1 1 2 3 4 6 7 6 5 3 4 4 3 3 4 2 2 3 1 2 1 2 1 2 2 5 7 7 8 7 5 4 4 2 2 3 2 1 1 0 3 6 9 8 4 2 2 1 2 4 5 4 8 10 8
14 14 12 10 10 11 12 14 13 10 8 8 10 12 12 9 5 5 5 4 4 1 3 3 4 2 2 2 1 1 1 1 2 1 2 3 2 3 5 4 5 4 3 4 3 3 4 3 2 3 1 2 1 3 0 2 2 3 5 4 4 4 3 3 4 3 3 3 2 1 1 1 4 8 10 8 4 1 1 1 2 4 4 4 7 8 7
14 14 12 10 9 10 11 12 13 11 8 7 8 10 12 11 7 6 6 4 4 2 3 2 3 2 2 3 2 1 1 2 1 2 2 3 2 2 3 2 2 3 2 3 3 2 3 2 1 2 2 2 1 2 1 1 1 2 3 3 3 3 3 3 3 2 2 2 2 1 1 1 6 11 10 5 1 0 1 2 3 3 1 6 8 6 6
14 13 11 9 8 8 10 11 12 11 9 9 8 9 12 13 11 11 10 6 4 3 2 3 2 2 2 3 4 2 2 3 2 3 2 2 2 2 4 3 2 3 3 3 3 2 2 1 1 1 2 1 1 2 2 1 1 1 1 2 2 1 1 2 2 1 2 2 2 2 0 2 8 12 7 2 2 0 2 2 2 2 2 6 7 6 8
13 13 11 9 7 7 8 10 12 11 9 8 7 9 10 12 12 13 12 9 6 4 1 2 2 1 1 1 3 4 4 2 0 1 2 3 2 4 3 2 2 1 2 2 2 1 0 1 0 1 2 1 1 2 2 1 2 3 1 3 2 2 1 2 0 1 1 3 2 1 1 4 7 6 3 2 3 2 2 0 2 4 4 5 6 6 8
13 13 12 8 6 6 7 9 11 11 9 7 6 7 9 9 9 9 9 8 7 4 2 1 2 3 3 2 2 3 3 1 1 0 2 1 2 3 4 2 1 1 1 1 2 1 1 2 1 2 2 2 2 2 2 3 2 3 3 3 3 1 1 3 1 1 3 3 1 0 2 4 4 2 2 2 2 2 2 3 4 4 4 4 6 8 9
13 13 12 8 6 5 5 8 9 10 9 8 7 9 10 8 7 8 9 9 7 4 4 4 4 3 4 4 5 6 6 5 6 4 1 1 2 2 1 1 1 1 1 1 2 2 2 2 2 2 2 2 2 3 3 3 2 2 3 4 1 1 1 3 2 2 3 4 3 3 3 4 4 4 3 3 4 4 4 6 7 6 6 6 7 9 10
13 14 13 9 6 4 4 7 9 9 8 8 7 9 11 9 8 8 8 6 4 3 4 6 4 2 3 5 7 8 9 9 9 7 5 3 2 1 2 1 0 1 2 1 2 2 3 2 2 3 3 1 2 3 3 3 2 1 2 3 3 2 2 4 3 2 3 2 3 4 3 3 4 5 5 6 6 5 5 7 7 6 8 9 9 10 10
13 14 13 10 6 2 3 6 7 8 9 8 7 7 9 8 6 7 6 4 2 3 3 3 4 3 4 4 5 7 10 11 9 9 9 6 2 3 1 1 1 2 1 0 2 3 4 2 2 3 3 1 2 2 2 2 1 2 3 2 3 2 3 3 3 3 2 1 3 5 3 2 4 5 4 5 6 6 7 7 7 8 8 9 10 11 9
13 13 13 10 5 1 4 5 6 8 9 10 9 8 10 10 7 6 7 6 4 4 3 0 4 6 8 6 6 9 11 11 10 11 12 9 4 3 4 4 2 3 2 3 4 4 4 3 3 3 3 2 2 2 2 1 1 2 3 1 3 2 3 2 2 3 3 1 2 3 4 5 6 6 5 4 4 6 8 7 8 9 9 9 10 10 9
13 13 13 10 4 2 5 5 6 8 9 10 11 11 11 11 9 7 6 6 4 3 2 1 3 7 6 5 8 13 13 12 11 13 16 15 11 10 8 5 3 3 4 4 3 3 4 4 3 3 1 1 2 3 2 1 3 3 3 3 3 2 2 1 3 4 1 2 2 1 3 3 2 3 4 5 3 5 8 7 7 8 8 8 7 7 7
13 13 12 8 2 4 5 6 6 7 9 10 12 12 13 12 11 8 5 4 4 3 3 3 3 5 3 5 11 13 12 12 13 15 18 19 18 18 15 8 4 3 4 4 3 3 4 4 2 1 1 1 2 3 2 2 4 4 2 3 2 2 3 2 2 3 3 6 5 4 4 3 2 2 3 4 3 4 7 6 5 6 6 7 8 6 5
13 12 10 5 3 5 5 6 7 7 8 7 6 8 9 11 12 9 6 6 6 5 4 1 2 2 0 4 10 12 10 12 15 17 19 20 19 18 15 9 4 3 3 4 4 3 2 2 2 0 1 1 2 2 2 2 4 2 3 4 3 2 3 3 3 4 1 3 4 4 3 3 2 2 1 3 2 5 6 5 4 4 5 6 7 6 6
11 10 7 4 5 5 5 5 6 8 8 5 1 4 5 6 8 9 7 6 7 5 4 3 2 2 2 3 7 12 12 11 13 16 17 16 14 12 10 6 4 3 3 3 3 3 2 1 1 1 3 1 4 3 1 2 2 2 4 5 5 3 2 1 2 3 2 2 3 4 4 3 3 2 1 2 1 5 5 3 3 5 6 7 7 6 7
8 7 5 4 5 5 5 5 6 8 7 3 2 3 2 1 4 6 6 5 6 5 4 3 1 2 3 2 4 10 12 11 10 10 10 8 7 9 9 7 4 4 4 3 2 2 2 1 2 2 3 4 5 4 2 3 3 1 4 5 5 4 2 2 1 2 4 5 5 5 4 3 3 3 2 2 1 3 5 4 4 6 6 7 8 8 8
6 4 3 5 5 5 6 6 6 8 7 3 3 4 3 2 2 4 4 5 5 5 5 3 2 1 2 2 4 9 10 8 7 6 6 6 6 7 9 7 3 3 4 4 2 2 1 0 1 2 3 4 4 3 2 4 4 1 2 4 5 5 3 3 3 4 5 6 7 6 4 2 0 2 3 3 2 3 6 7 6 7 8 7 7 7 7
4 2 3 5 5 5 7 8 9 9 8 6 6 6 4 4 4 4 4 5 5 4 4 3 2 1 1 2 3 9 9 5 4 5 5 5 4 4 5 5 3 4 6 4 2 1 1 1 2 2 3 3 4 4 3 2 1 2 3 3 4 4 4 3 3 4 2 1 3 4 4 4 4 4 6 6 4 3 6 9 9 8 8 7 7 6 6
2 2 4 5 5 6 6 7 9 10 8 7 6 5 5 5 4 3 4 5 5 4 4 4 3 0 2 1 2 6 7 4 2 3 3 4 4 2 2 4 3 4 5 4 2 2 3 2 2 2 3 3 4 4 2 1 2 3 4 3 3 3 4 4 4 4 4 5 3 2 4 4 4 4 5 6 5 4 6 8 7 6 5 3 3 5 6
1 4 5 5 6 7 7 7 7 7 6 5 4 4 5 5 5 5 4 3 3 2 2 3 3 2 2 3 2 5 6 4 2 2 1 2 4 3 2 2 4 3 2 2 2 3 3 2 2 2 2 3 3 2 1 3 3 3 3 2 1 2 4 3 1 3 4 4 4 4 4 5 6 4 3 3 4 4 5 4 3 4 4 3 5 5 5
4 5 6 6 7 7 7 6 6 4 3 3 3 3 4 5 6 8 8 6 6 3 2 1 3 2 3 2 1 4 4 3 1 2 1 2 3 3 3 4 3 2 1 3 3 2 2 1 2 2 3 2 2 1 4 4 3 1 2 4 4 2 2 2 3 2 4 5 5 5 5 6 4 1 1 2 2 2 4 3 2 3 4 4 5 5 5
6 6 6 6 6 5 4 4 4 4 3 2 2 3 4 3 3 4 5 6 6 5 3 3 2 1 3 3 1 3 3 2 1 3 3 1 2 2 3 3 2 1 2 4 3 2 2 2 3 3 2 0 1 3 5 4 4 3 3 4 5 4 2 3 4 6 6 7 6 5 5 5 4 3 2 2 0 1 3 3 4 4 4 5 6 6 7
7 6 6 5 3 3 2 1 2 3 2 2 2 3 3 2 2 2 2 3 4 4 3 4 2 0 2 2 1 2 2 1 2 3 2 0 1 2 3 2 1 1 2 2 2 1 3 3 3 4 0 3 2 2 3 3 4 4 4 4 5 5 4 4 4 6 6 4 2 2 3 3 1 2 0 2 2 4 3 4 6 6 6 6 7 8 8
7 5 4 3 2 1 1 1 2 3 2 2 2 2 2 3 3 2 2 2 2 3 3 3 1 1 2 3 1 2 1 3 3 3 1 1 1 1 1 1 1 2 3 1 2 2 4 3 3 3 1 3 3 3 3 3 2 2 3 3 4 3 4 5 4 4 5 4 4 4 4 3 3 4 3 2 3 4 3 4 5 6 8 8 7 8 9
6 4 3 2 1 2 2 2 3 3 3 2 3 2 1 2 2 1 0 2 2 2 1 2 1 1 2 4 2 1 2 2 2 2 1 0 0 1 2 1 1 3 3 1 2 2 3 1 2 2 1 3 3 3 4 4 4 4 4 4 3 1 5 6 3 1 2 3 4 4 5 5 6 6 5 4 3 3 4 4 3 4 5 5 7 10 11
4 4 2 2 3 4 4 3 3 3 2 2 2 2 1 1 1 1 2 3 1 2 1 2 2 2 1 2 3 1 2 1 2 3 3 1 1 2 3 1 1 3 2 2 2 2 4 2 2 0 3 4 4 3 4 4 4 5 4 5 5 3 3 5 2 1 1 3 3 3 3 4 6 7 6 6 5 4 4 4 2 2 3 4 6 10 12
6 5 5 5 5 4 4 4 4 3 2 2 2 1 1 0 0 1 2 1 1 1 0 1 2 1 0 1 2 2 0 1 1 3 3 1 0 2 2 1 2 3 1 2 1 4 4 2 1 3 4 4 3 2 1 2 4 4 4 4 4 4 2 2 3 3 2 1 1 2 3 4 6 6 5 5 4 3 4 4 4 4 4 4 5 8 10
9 8 7 5 4 4 3 3 2 2 2 2 2 1 1 1 1 1 0 1 1 1 1 0 1 1 1 1 1 1 1 1 1 2 3 1 1 2 3 2 2 1 1 0 3 4 2 1 2 4 4 3 3 3 3 3 4 5 6 4 3 4 3 2 3 3 3 3 2 1 2 4 5 5 5 5 4 4 5 6 7 6 5 5 5 6 8
7 5 4 2 2 3 2 1 0 1 1 1 1 2 1 0 0 1 1 1 1 1 1 1 2 3 1 1 1 1 1 1 1 2 1 1 1 2 3 1 1 1 1 2 3 2 1 2 3 4 4 3 3 4 4 4 3 4 5 5 4 2 3 3 3 2 2 1 1 0 2 3 4 4 4 5 5 6 7 8 8 7 6 6 6 6 6
3 3 3 3 2 1 1 0 1 1 1 1 2 3 4 3 3 3 3 2 2 2 2 2 3 4 1 1 1 1 0 1 2 1 0 1 3 2 0 1 0 1 2 2 2 1 0 1 3 3 3 4 4 4 3 4 4 2 3 6 6 4 3 4 4 4 3 2 2 2 3 4 5 5 6 6 6 6 7 7 6 6 5 6 6 6 5
2 1 3 3 1 1 1 1 1 0 1 2 3 3 4 4 4 4 3 1 3 4 3 2 4 4 2 1 1 1 1 2 2 1 1 3 3 0 1 1 2 3 3 2 1 1 3 3 4 3 3 4 4 4 3 4 3 3 2 3 5 6 5 5 6 5 4 4 5 6 5 6 7 8 9 9 8 8 8 7 5 5 5 5 6 5 4
1 1 3 3 0 1 1 1 2 2 2 2 3 4 4 4 3 2 1 2 3 5 3 2 3 3 1 1 1 1 1 2 2 1 1 3 2 1 2 2 1 1 2 2 2 4 4 4 3 3 4 4 3 3 4 4 2 3 4 4 5 7 8 7 8 7 5 4 5 7 9 10 10 11 11 12 12 12 10 8 8 7 6 5 4 4 5
1 1 2 2 1 1 1 2 2 1 1 1 1 2 2 3 4 2 2 1 3 4 4 3 3 2 2 2 2 1 2 2 2 0 1 2 2 1 2 2 1 1 2 3 4 4 3 3 3 4 4 3 2 2 4 4 3 4 4 4 5 7 8 8 8 8 7 6 7 8 10 11 11 11 10 11 12 12 10 8 8 9 9 9 8 7 6
3 2 1 1 2 1 1 1 2 3 3 3 2 2 3 4 5 3 1 2 3 3 2 3 4 2 1 1 2 2 1 1 1 1 2 3 2 1 1 1 0 1 2 3 4 3 3 3 3 2 2 2 1 2 3 4 4 4 5 5 7 9 9 9 10 10 10 9 9 10 10 10 10 9 9 10 11 11 10 9 7 6 7 8 9 8 7
2 2 1 2 2 1 1 1 4 3 3 3 3 3 3 4 4 2 0 1 3 3 2 3 3 2 1 1 3 2 1 1 1 2 2 1 1 2 2 1 2 3 3 3 3 3 4 3 2 2 2 3 3 3 4 5 5 6 7 8 9 10 10 10 10 10 10 9 9 10 10 10 10 10 10 11 11 11 11 10 8 6 6 5 5 6 7
2 2 1 1 3 3 2 3 4 3 2 3 3 2 2 4 4 2 1 2 3 4 3 1 1 2 3 2 1 1 0 0 2 3 1 1 2 3 2 2 5 5 4 3 3 3 3 3 3 3 2 3 3 4 6 7 8 8 8 8 8 9 9 8 8 8 8 8 8 8 8 9 9 10 10 10 10 9 10 10 9 6 5 5 5 6 7
2 1 0 1 1 3 3 3 3 3 3 3 3 3 2 3 3 3 1 4 4 3 1 1 2 3 3 1 1 1 1 1 2 1 0 1 1 3 4 5 5 4 3 3 4 3 3 3 4 4 4 4 5 5 6 7 8 8 7 7 7 6 7 8 8 8 8 8 7 6 6 7 8 9 10 9 8 7 9 10 9 6 4 6 7 7 8
Wind_Direction
340 337 335 339 342 339 339 341 342 347 352 356 358 353 6 120 98 341 142 156 148 45 53 336 360 176 258 277 228 246 266 286 315 337 357 348 345 10 8 359 11 270 285 340 356 360 334 345 24 280 306 342 284 313 317 251 92 58 108 208 284 72 90 72 288 295 297 305 317 356 64 58 32 349 43 125 147 146 150 176 175 137 159 149 102 241 266
339 336 336 341 344 340 340 342 341 347 351 343 335 340 94 138 87 68 156 183 346 48 134 325 333 279 316 347 322 307 226 23 355 340 332 333 11 21 344 343 5 294 349 26 333 329 16 33 350 9 132 317 314 341 351 26 96 63 173 193 230 358 63 96 359 325 326 341 347 343 357 28 40 319 320 323 126 115 118 134 103 116 209 153 131 224 261
337 335 337 344 346 342 342 343 343 344 339 314 260 245 50 114 77 19 216 247 6 94 171 153 173 263 351 6 333 348 349 306 326 181 308 331 115 111 313 320 350 327 5 16 325 332 58 226 338 9 13 296 313 350 357 16 62 65 152 143 119 109 83 102 145 206 228 227 245 254 288 320 332 330 331 331 76 122 129 129 113 195 228 143 142 206 243
336 335 339 346 348 346 345 346 346 343 330 277 192 191 292 124 104 352 329 348 37 99 178 116 133 222 84 35 331 18 360 310 308 156 126 358 36 53 325 342 16 21 22 18 333 333 348 350 29 18 335 305 300 330 345 14 30 33 57 55 73 101 59 58 129 157 186 205 233 249 261 290 313 327 341 339 322 91 110 109 154 193 175 184 222 188 164
337 336 341 348 350 350 349 352 353 348 337 198 170 165 13 129 136 157 153 355 5 340 339 86 113 197 132 103 336 360 338 313 327 5 23 6 24 57 18 20 45 26 11 20 310 324 346 7 42 18 333 306 298 314 339 18 6 16 47 25 58 103 44 17 113 125 195 239 261 285 310 117 90 345 341 340 331 351 94 127 193 157 130 230 258 179 147
338 337 343 350 353 354 355 359 360 0 25 141 153 69 15 140 167 167 152 168 185 244 309 125 102 72 110 125 18 5 353 350 335 322 338 358 22 84 13 6 37 318 303 119 323 335 2 9 11 3 343 330 327 330 341 15 4 17 39 8 72 109 105 200 149 166 225 309 334 6 33 75 83 39 7 351 346 10 78 134 186 144 142 216 227 141 136
338 339 346 351 356 359 0 4 5 11 85 139 144 5 358 116 122 287 28 113 164 171 121 111 91 62 9 359 37 77 19 2 311 278 354 357 355 73 65 319 331 335 251 130 83 352 46 11 332 335 351 342 342 341 328 340 4 23 32 14 77 101 157 199 174 185 9 11 8 34 54 65 52 32 26 10 356 14 55 62 128 126 141 178 135 112 97
339 342 347 352 359 2 4 8 8 9 153 193 305 354 175 123 151 185 59 63 57 24 37 75 82 34 357 14 2 117 92 6 315 290 101 15 329 17 49 291 307 335 45 99 97 174 149 141 265 237 342 329 294 311 291 301 343 6 26 6 32 84 143 190 128 133 358 9 8 10 30 74 73 23 18 13 4 11 32 27 7 63 102 110 109 102 82
341 342 348 354 2 6 7 10 11 12 332 226 272 29 41 110 167 142 105 70 350 357 29 66 88 34 2 10 293 351 66 317 301 288 225 175 219 264 266 288 310 360 26 47 243 233 189 195 228 221 217 242 223 217 236 270 341 347 360 3 12 68 127 76 80 144 268 352 10 354 353 23 53 24 11 2 360 359 347 342 333 326 118 115 111 107 107
342 343 350 357 3 10 12 12 15 22 28 233 236 9 4 65 56 58 101 88 351 13 49 44 79 113 279 242 263 292 278 287 325 336 306 295 197 216 212 213 350 5 343 296 260 266 250 237 238 225 219 228 215 218 253 253 255 305 342 12 21 98 114 90 115 151 252 327 17 7 357 2 5 9 4 349 336 331 325 330 340 338 42 124 148 134 128
345 345 352 360 5 12 16 16 16 24 33 38 105 52 5 87 107 51 79 80 360 19 72 41 62 103 314 305 282 295 341 345 19 97 289 305 279 226 174 143 107 302 254 232 250 271 260 260 256 206 211 243 239 242 267 266 237 216 183 94 24 99 104 105 166 122 308 316 12 49 25 356 287 306 357 340 322 341 353 8 1 349 351 107 152 122 117
348 347 352 1 8 12 17 20 18 20 30 40 64 61 24 78 118 72 86 106 342 8 68 81 185 190 332 331 260 256 318 331 316 224 233 272 293 298 149 137 127 259 250 267 320 310 266 300 3 90 96 332 262 277 342 357 330 274 182 157 129 106 102 96 91 98 97 338 35 80 192 298 284 296 359 344 319 341 343 357 24 9 359 30 83 103 106
349 348 353 2 9 13 17 22 22 21 27 36 47 55 60 122 110 87 98 111 125 325 99 94 305 336 335 346 6 283 281 285 278 245 222 250 278 298 303 162 175 248 294 330 341 5 74 20 5 42 25 15 9 355 15 16 351 337 319 152 142 135 126 108 75 69 93 49 46 112 196 291 318 5 9 1 353 358 342 328 27 15 359 36 86 99 98
349 348 356 4 8 16 18 21 26 26 29 37 43 53 89 124 105 112 115 104 102 259 130 50 337 343 342 345 5 328 320 335 324 271 224 218 246 258 264 218 234 285 319 3 356 34 81 35 20 27 358 6 23 355 353 1 346 349 352 345 131 134 136 120 78 36 128 114 75 129 173 359 27 23 3 350 326 333 332 312 8 13 10 52 101 107 103
349 349 358 5 9 16 19 22 28 30 34 45 49 59 78 83 80 113 127 115 114 45 51 148 257 295 330 335 30 23 350 350 346 311 305 318 262 252 245 260 297 312 354 118 41 44 87 97 80 60 356 15 47 315 341 355 321 324 346 356 57 89 127 141 121 72 94 102 92 55 24 22 21 329 316 313 290 288 284 264 334 12 24 50 98 108 106
349 349 357 6 9 15 21 24 26 29 39 52 54 59 63 59 66 95 102 102 108 92 290 222 198 160 133 314 12 58 35 307 323 332 329 330 308 290 287 297 311 337 61 77 54 72 73 88 130 122 146 204 195 249 7 1 309 304 340 24 43 43 53 95 89 57 54 85 106 78 62 182 295 308 311 323 317 277 238 205 355 9 19 54 93 98 93
349 349 355 4 7 14 24 26 27 30 37 49 58 58 54 51 62 85 86 86 93 90 249 200 138 85 76 6 334 28 127 270 359 27 318 307 308 309 317 328 334 6 74 64 33 59 69 76 106 81 28 253 167 99 15 360 358 332 337 5 29 28 24 45 59 59 53 68 86 52 43 285 301 313 314 317 305 216 154 69 6 356 3 55 95 97 87
348 349 353 0 6 15 25 28 31 35 37 50 62 59 54 52 63 84 90 91 87 50 259 193 128 81 99 140 205 218 126 19 18 39 294 298 301 301 312 335 344 347 56 82 62 62 73 63 71 95 94 286 81 100 340 340 22 337 327 353 19 15 19 48 74 77 51 62 86 47 327 270 310 317 311 306 292 173 78 15 304 323 354 71 88 93 93
347 347 350 357 5 16 27 31 34 40 47 57 65 61 56 54 62 87 95 95 97 103 262 246 120 132 166 121 92 359 53 54 73 92 17 338 298 283 308 328 340 342 22 73 72 81 83 40 337 121 99 343 4 102 84 22 13 323 337 13 16 8 14 27 49 54 40 84 103 24 282 262 332 326 313 304 322 68 327 313 293 299 45 93 82 79 96
347 346 348 354 3 14 29 36 38 43 51 59 68 69 63 61 70 86 96 105 105 94 300 317 69 148 185 91 77 78 62 48 60 100 104 262 274 26 27 344 321 355 15 49 57 56 87 79 300 73 81 17 12 96 90 61 35 354 17 57 33 15 36 26 13 14 43 63 57 29 201 321 339 335 330 3 43 323 257 304 345 358 77 92 85 88 106
347 347 345 350 1 13 32 42 43 46 48 56 74 78 73 79 90 91 94 104 106 94 17 330 37 93 188 106 113 118 109 103 125 136 180 249 289 67 89 233 251 9 22 64 79 45 121 138 313 33 76 20 17 90 115 103 34 5 54 101 53 14 73 115 307 324 57 65 46 33 314 316 333 346 4 357 334 287 230 301 35 38 46 73 86 93 105
346 345 344 346 357 13 39 49 49 49 48 56 86 93 83 92 104 96 84 86 94 101 112 100 56 44 25 353 351 17 33 29 317 256 176 248 334 76 119 178 245 198 181 106 78 40 69 102 93 84 72 30 31 75 101 101 58 341 353 61 63 8 116 129 119 35 82 100 104 22 319 313 329 9 32 8 10 26 66 89 79 54 36 58 89 96 98
344 344 344 346 354 14 48 58 54 51 49 57 87 101 97 99 109 107 93 84 82 76 53 52 60 43 24 18 13 7 3 360 351 342 61 93 349 351 90 103 289 246 196 132 130 137 124 124 127 107 87 61 73 75 61 66 77 348 8 40 58 253 83 89 92 70 66 65 45 20 357 343 360 23 34 50 60 55 69 86 84 73 65 65 79 93 96
344 344 343 345 352 12 60 68 62 57 53 57 79 98 101 103 114 120 107 76 64 70 39 31 40 26 335 343 9 21 16 8 1 360 22 69 88 351 330 286 143 32 343 291 170 127 100 118 123 91 80 78 88 87 74 60 60 69 49 16 337 331 68 76 80 72 62 46 357 344 338 334 356 26 47 55 58 56 68 83 88 89 88 85 84 90 94
344 343 343 344 345 13 87 82 72 66 58 58 77 101 104 99 111 133 121 78 78 117 80 2 339 355 356 346 7 22 12 6 16 29 26 29 86 117 160 216 111 69 359 313 86 76 69 72 85 86 86 85 80 89 99 92 82 92 84 22 319 351 68 71 60 57 77 155 288 310 334 3 9 26 47 56 65 70 72 81 92 91 88 91 95 98 100
342 341 342 342 339 30 115 99 84 76 69 67 76 92 96 88 88 116 115 96 91 92 84 285 298 352 22 32 24 14 10 15 36 47 38 32 46 102 142 155 99 62 82 86 77 87 96 83 74 80 76 63 80 93 90 78 82 78 73 5 290 345 35 41 54 55 49 16 302 332 20 36 26 27 32 29 57 84 87 86 94 97 95 94 94 99 112
342 340 340 340 340 131 131 118 103 92 84 78 75 79 86 84 84 98 104 98 95 63 61 178 278 330 359 20 11 7 13 27 45 52 51 55 62 67 78 97 83 47 47 47 46 71 81 67 60 75 85 63 76 84 88 84 83 75 46 345 336 42 72 72 79 77 65 246 231 157 90 80 26 15 20 4 11 87 98 95 97 103 107 107 98 91 97
341 341 341 343 18 126 132 132 128 118 106 92 77 73 74 70 67 73 78 84 107 125 141 178 277 326 353 5 3 8 18 31 46 58 57 55 59 58 55 59 68 59 52 55 58 57 60 70 88 90 97 120 78 47 21 43 59 51 6 331 343 114 153 173 130 133 215 233 208 161 124 136 197 258 346 350 4 79 97 103 109 116 124 128 123 114 102
343 345 348 4 89 119 128 138 147 145 133 116 80 66 67 60 53 57 68 82 96 105 110 105 349 349 287 326 350 10 30 37 47 57 54 48 48 48 46 50 69 85 86 85 86 80 69 97 146 208 343 123 111 48 14 48 54 22 307 301 302 241 198 199 165 147 191 231 191 160 123 113 154 190 305 336 39 95 97 96 105 119 133 135 131 138 148
356 1 10 51 101 111 119 137 158 161 154 148 71 40 54 47 40 45 60 90 106 107 102 103 75 355 285 300 352 9 17 27 42 47 45 43 41 35 35 48 60 58 67 68 73 97 99 33 17 337 327 26 102 99 90 96 81 313 294 306 312 299 275 245 193 156 130 138 155 146 129 121 130 130 63 319 136 119 109 100 116 130 139 139 134 140 154
7 16 36 84 105 105 105 123 155 165 165 161 40 50 80 67 25 34 51 86 109 110 95 97 111 341 335 337 9 4 360 11 33 36 34 39 33 24 34 49 40 32 54 66 49 81 102 27 10 360 342 14 77 105 121 104 95 327 321 338 326 312 354 49 79 129 121 112 99 82 77 88 96 87 53 330 296 117 108 107 128 137 138 135 136 148 162
10 27 74 106 110 106 100 103 132 159 168 151 79 80 115 138 38 37 62 88 103 109 96 77 71 15 342 317 341 353 357 11 31 27 21 21 13 13 31 45 40 29 58 84 74 38 55 107 54 24 355 16 69 94 84 92 117 184 329 352 330 313 340 56 92 111 120 119 103 79 53 23 336 184 187 205 200 124 114 111 115 125 126 117 116 137 163
14 50 112 121 116 107 101 98 109 128 136 123 101 83 79 81 58 50 81 90 86 95 100 96 100 66 291 260 332 356 2 11 22 23 20 10 360 4 19 22 24 27 33 47 67 18 19 97 80 35 352 12 74 89 71 68 126 263 313 333 322 321 339 22 72 81 64 27 84 114 159 208 232 214 179 155 129 112 123 124 122 120 119 115 118 138 163
24 114 128 126 115 104 103 104 110 115 112 102 91 70 60 70 69 65 92 99 85 71 59 77 113 91 335 343 342 353 6 29 33 19 17 357 356 24 17 356 13 36 25 18 42 36 14 26 58 40 343 355 48 75 74 309 304 325 348 351 339 358 27 40 41 28 344 332 7 81 150 153 132 132 136 118 94 94 120 127 127 121 112 122 163 174 171
116 141 139 130 110 100 104 108 108 108 96 78 68 59 64 75 76 75 84 83 72 67 27 43 102 126 28 34 337 326 359 44 46 352 356 351 2 34 72 28 24 30 6 9 52 46 10 16 78 60 344 360 41 53 227 230 259 318 352 343 310 92 98 101 60 2 346 357 32 36 46 83 109 138 141 84 69 94 111 108 110 131 146 193 221 205 181
147 144 137 127 113 105 104 96 86 81 69 59 59 68 80 89 85 81 82 72 65 93 154 52 68 115 126 115 263 312 359 45 17 327 346 9 6 24 70 69 48 11 355 37 51 28 347 20 78 46 358 37 75 270 245 211 191 259 290 256 231 185 137 184 178 122 38 40 57 46 44 67 76 10 10 32 23 79 105 97 81 116 148 204 227 215 196
143 140 139 136 117 94 75 62 61 63 60 69 90 85 83 96 90 70 67 57 46 56 101 105 88 145 156 150 237 321 10 46 2 359 14 17 347 353 35 60 57 322 9 28 24 351 343 19 69 70 38 43 217 270 262 211 181 210 271 268 250 242 250 220 158 116 71 51 52 41 39 56 44 8 34 72 244 145 135 178 204 178 177 209 213 205 202
134 135 140 138 108 67 42 29 55 71 81 107 117 83 40 34 53 36 13 16 18 18 49 86 90 321 86 86 359 329 15 45 21 28 36 32 335 8 33 56 90 69 35 353 295 334 34 22 47 76 44 279 284 288 272 237 212 223 243 257 258 250 228 199 150 116 96 77 63 53 59 62 21 285 182 141 192 198 199 233 234 220 223 233 221 205 199
134 133 118 102 90 106 148 130 80 98 119 111 95 74 5 19 51 31 331 349 10 353 15 68 100 194 105 93 355 313 38 65 51 44 39 13 33 52 54 52 51 64 62 333 286 45 58 9 6 54 10 315 332 333 311 317 323 294 281 278 280 262 194 182 174 143 143 168 210 212 191 176 198 213 213 222 237 245 263 271 251 240 246 249 229 206 198
133 125 89 73 103 134 134 123 117 130 127 62 38 51 43 36 59 107 358 34 32 346 3 82 106 232 135 124 131 334 24 61 90 111 108 43 185 107 86 76 67 69 67 321 300 66 89 52 12 69 166 270 288 301 326 353 350 321 324 340 340 310 166 173 201 246 201 212 235 236 230 218 198 189 197 210 213 241 274 280 273 259 253 237 213 206 208
125 116 102 114 128 120 113 105 97 99 92 42 26 46 64 32 351 53 76 68 43 287 289 78 65 15 28 95 107 67 10 16 120 118 98 19 355 70 70 42 48 76 81 270 293 69 88 74 26 348 221 237 254 285 338 348 316 305 338 16 22 33 139 156 159 309 245 219 216 218 233 229 209 198 201 203 200 221 261 280 299 274 236 221 218 219 219
123 124 123 118 107 96 87 70 52 45 60 66 46 25 11 311 342 47 78 110 174 232 6 75 110 132 52 49 92 112 81 340 42 86 83 28 340 95 87 19 36 76 129 245 314 59 68 63 336 267 253 247 244 259 315 306 287 304 336 5 18 17 24 97 86 56 37 23 263 229 216 213 212 209 203 201 210 248 277 283 283 270 249 242 243 239 233
116 117 115 105 76 48 39 35 33 36 45 61 66 33 344 354 29 49 33 278 276 80 73 56 136 114 47 25 61 106 54 6 29 79 87 58 330 70 65 33 40 108 184 287 52 61 73 166 209 242 257 256 242 238 243 255 277 299 306 311 345 5 350 360 50 50 39 35 25 323 214 201 203 204 197 201 224 261 275 275 279 282 278 268 259 254 248
108 91 81 67 29 26 31 15 12 90 74 73 117 126 138 200 196 130 142 210 231 142 153 155 120 99 67 18 39 40 20 26 55 69 75 26 17 57 67 28 263 240 19 38 52 57 221 214 222 245 265 271 259 251 251 260 276 294 301 305 320 339 322 318 340 357 4 27 39 308 200 191 191 195 208 227 245 259 269 276 284 286 278 261 256 262 264
86 44 47 40 4 360 57 7 334 31 151 188 174 153 159 174 184 186 189 189 153 122 120 116 109 106 84 331 26 68 7 24 50 48 60 59 48 48 121 210 256 45 51 45 39 36 248 257 267 267 253 242 247 254 255 254 248 249 296 311 313 311 304 300 299 297 294 273 249 229 211 208 213 223 234 242 248 258 272 285 295 293 275 251 246 254 261
97 97 91 86 359 301 109 100 348 320 184 195 191 171 165 170 182 192 195 154 110 119 133 129 108 102 79 332 8 70 47 55 63 45 65 83 75 15 223 133 64 51 54 45 5 244 221 238 258 256 233 232 248 266 270 259 230 201 216 285 296 295 294 284 272 271 272 263 256 254 249 246 250 255 258 259 265 273 277 279 286 293 281 255 248 257 261
90 72 86 99 138 337 71 156 220 217 204 211 202 179 166 164 164 156 120 119 133 136 130 104 91 95 83 50 74 54 15 50 77 37 36 82 92 314 7 56 65 109 114 129 234 244 241 247 252 245 240 249 269 288 293 290 256 215 222 247 271 282 282 271 263 269 283 281 267 266 264 260 259 263 267 272 278 281 276 267 263 269 270 260 260 277 275
113 81 82 118 172 176 181 212 203 117 27 322 214 174 144 121 110 81 21 51 121 116 106 99 96 79 24 33 75 65 2 35 72 44 23 85 95 11 24 35 330 264 164 174 209 229 236 237 235 234 240 243 231 242 262 265 248 234 237 247 266 280 284 279 276 286 301 308 299 290 284 277 270 268 269 276 283 288 290 283 268 259 255 256 264 272 270
97 100 96 125 142 171 235 229 94 59 1 350 37 69 66 87 107 114 4 46 85 99 127 136 121 103 12 5 60 59 18 40 90 52 25 50 80 127 117 100 292 267 216 203 215 226 232 230 227 243 274 282 272 256 260 259 252 251 257 267 280 289 293 294 295 299 304 304 303 304 304 299 289 278 271 273 279 287 296 302 294 266 249 252 262 264 261
65 78 93 104 105 120 275 67 84 72 8 12 60 83 89 102 116 138 244 98 96 74 52 65 79 83 61 45 52 40 334 264 109 80 59 74 152 138 111 140 210 216 212 213 219 227 234 223 190 195 260 275 274 265 263 261 258 259 266 277 287 291 291 292 294 298 301 302 303 306 308 307 303 296 288 283 283 285 290 297 297 274 239 238 259 269 262
32 53 94 135 128 146 168 138 121 132 154 147 150 172 147 127 142 194 200 112 88 60 50 62 83 61 52 51 71 128 220 39 67 72 86 211 164 121 124 215 228 220 219 232 234 228 229 218 187 185 234 262 252 244 251 258 261 266 277 288 294 293 291 293 297 302 310 316 318 316 315 316 320 320 312 302 294 289 287 290 292 276 245 247 272 281 274
59 58 358 318 90 125 134 123 113 125 146 158 176 183 145 142 185 210 131 83 79 84 121 157 97 74 77 144 197 144 83 48 51 68 174 217 166 149 176 207 217 203 202 232 248 238 222 216 205 197 213 238 250 258 266 271 272 278 290 299 301 298 297 302 308 316 323 329 330 328 325 325 326 324 320 313 303 289 284 291 300 303 284 273 276 279 282